Location: Big Prairie
(40.6673°N, 82.0952°W)
Time: 19:42:43
(UTC+00:00)

USA 276 - Pass Details

Date: 02 July 2022
Orbit: 366 x 369 km, 50.0° (Epoch: 12 July)

Event Time Altitude Azimuth Distance (km) Brightness Sun altitude
Rises 06:10:23 0° 308° (NW) 2,210 6.3 -25.7°
Reaches altitude 10° 06:12:37 10° 321° (NW) 1,360 5.3 -25.6°
Enters shadow 06:13:34 16° 333° (NNW) 1,050 4.8 -25.6°
